Wind_Speed
24 23 22 22 21 20 19 17 16 16 16 16 16 16 16 16 16 17 17 17 18 19 20 23 27 29 28 28 27 26 25 26 29 32 34 35 36 36 35 33 34 36 37 38 36 35 35 37 38 39 40 40 40 39 40 41 42 43 42 41 41 37 35 36 35 38 38 36 38 39 36 35 36 34 31 29 28 27 28 28 27 27 27 28 31 31 25 22
22 22 21 20 20 19 18 17 16 15 15 16 16 16 16 16 18 18 18 18 20 22 24 27 29 30 30 29 27 26 26 26 26 27 27 29 32 34 35 35 36 37 38 39 39 37 35 36 37 37 38 39 40 40 39 41 42 42 42 41 39 35 35 35 34 36 37 39 40 39 35 35 35 33 32 30 28 28 27 25 26 26 28 30 31 31 26 22
21 21 20 19 19 19 17 17 16 16 16 16 16 16 16 17 18 19 19 20 22 24 26 29 30 29 28 27 27 27 26 24 22 23 23 25 27 29 32 34 36 38 39 40 40 39 37 35 36 36 37 38 39 40 40 41 42 41 41 39 35 32 33 34 33 34 37 41 42 37 36 36 34 34 33 29 28 28 25 23 26 27 29 32 30 30 27 21
20 20 19 18 18 19 18 17 16 16 17 17 18 18 18 18 19 20 21 23 24 25 26 29 29 27 27 26 25 26 25 22 20 21 23 24 26 26 27 29 33 37 39 41 41 40 38 36 35 35 36 36 37 38 39 40 41 42 39 37 34 31 33 33 32 35 39 43 41 37 38 37 34 33 31 28 27 25 23 24 28 30 31 31 28 29 26 21
19 19 18 17 18 18 18 18 17 17 17 18 19 19 19 19 19 20 23 24 25 26 26 28 28 27 27 24 23 23 24 23 20 21 24 25 25 24 23 24 27 33 38 40 41 41 39 38 36 36 35 35 37 36 38 39 41 42 39 36 33 31 33 31 31 37 41 42 41 38 39 37 35 32 28 28 26 21 22 27 32 32 30 29 27 27 25 21
19 18 17 17 18 18 18 18 18 18 18 19 20 20 19 19 19 20 23 24 25 25 26 27 27 27 26 24 22 21 22 24 23 23 24 26 25 22 20 18 19 26 34 35 38 40 40 39 37 36 35 36 37 36 38 40 41 41 39 35 32 32 32 30 33 38 40 41 41 40 39 38 34 29 28 28 22 18 24 32 34 31 28 26 26 25 23 21
19 18 17 17 18 18 18 19 19 19 19 19 20 20 19 18 20 21 22 23 24 24 25 26 26 26 26 27 26 24 22 23 25 25 25 25 24 21 17 13 14 19 27 29 33 38 39 39 38 36 36 36 37 37 38 40 41 40 37 34 32 33 33 33 36 39 40 41 41 40 40 36 32 29 30 25 18 22 30 34 33 29 26 25 24 24 22 22
19 18 17 17 17 18 19 19 20 20 20 20 19 20 19 18 19 21 21 21 22 23 24 25 25 25 26 29 30 27 24 24 25 27 26 23 21 17 14 14 14 16 24 28 31 35 37 37 36 35 35 36 38 38 39 41 41 38 36 34 33 34 34 35 38 40 39 40 41 41 38 32 31 32 28 19 19 30 35 33 30 27 25 25 24 24 24 23
18 17 17 17 17 18 19 19 20 20 19 19 19 20 19 18 18 18 19 19 21 23 25 26 24 24 27 29 30 27 24 24 25 26 24 19 16 14 14 16 16 17 21 27 30 32 33 34 33 34 35 36 37 37 39 42 40 37 36 34 33 34 34 36 39 40 39 39 42 40 33 30 33 33 22 18 27 35 34 31 29 26 24 24 24 24 24 24
18 17 16 16 17 18 18 19 19 19 18 19 20 19 18 17 16 16 17 17 20 23 25 27 26 26 27 28 29 26 22 22 22 21 18 14 13 13 15 18 20 19 20 24 28 30 31 31 31 32 34 35 36 37 39 40 38 35 35 33 33 34 35 36 38 39 39 40 41 36 31 31 35 29 18 22 34 33 31 29 28 25 24 25 23 23 24 24
17 17 16 16 17 17 18 19 19 19 19 20 20 18 17 16 15 16 16 17 20 24 26 28 28 27 26 27 28 25 20 18 17 15 11 9 12 13 14 16 18 20 20 23 26 28 28 29 30 31 33 34 34 36 38 37 35 33 33 33 34 34 35 36 38 39 39 39 37 34 33 34 33 26 20 25 33 30 30 29 28 26 24 25 23 23 24 23
17 17 16 16 17 17 17 18 19 19 21 21 20 18 16 16 15 15 16 18 21 24 27 28 27 25 24 26 27 21 16 14 12 10 7 8 10 12 14 15 16 18 19 22 25 26 27 28 30 31 32 32 32 35 35 34 33 33 33 34 34 34 35 36 37 38 38 36 35 35 36 34 29 25 25 29 30 29 29 29 29 27 24 25 24 23 22 23
16 17 17 17 17 16 16 17 18 20 21 22 21 18 17 16 16 17 18 19 21 24 27 27 24 23 24 24 22 16 13 11 9 6 3 3 5 8 11 13 14 14 17 20 23 25 26 27 28 29 29 30 31 32 32 33 33 33 33 32 32 34 34 34 35 36 37 36 34 36 35 30 26 26 29 32 31 30 29 29 29 26 25 26 24 23 22 22
16 16 17 17 17 17 16 16 17 19 21 22 21 19 18 18 18 18 19 20 22 24 24 24 23 22 22 20 17 14 11 10 8 6 5 4 3 5 8 9 10 12 14 18 21 23 24 26 27 28 29 29 30 31 32 33 33 33 32 30 31 32 32 33 34 35 35 34 34 34 30 25 25 28 31 33 32 31 30 29 28 27 27 26 24 23 21 22
15 16 17 17 17 18 17 17 17 18 20 22 21 20 20 19 19 19 20 21 21 22 22 22 21 21 20 17 16 14 11 8 7 7 7 4 3 5 8 9 10 11 13 16 19 21 23 25 27 27 28 29 31 32 33 33 32 31 29 29 30 30 32 34 34 33 33 32 32 32 27 23 22 28 31 32 32 30 29 28 29 29 28 27 25 24 22 22
15 15 16 17 17 18 18 18 17 18 19 21 21 21 21 20 19 19 20 20 20 21 20 20 20 20 18 16 15 13 11 8 6 8 8 7 8 8 8 10 10 10 12 14 15 17 19 21 23 24 26 28 32 32 33 33 30 28 28 28 28 29 33 34 33 33 32 30 30 30 27 23 23 28 30 30 31 30 28 28 29 29 29 28 27 25 24 23
14 15 15 16 17 18 19 18 17 17 18 20 20 21 21 20 19 18 19 19 19 19 20 20 20 19 17 15 14 11 10 10 9 10 11 10 11 13 9 8 11 11 12 13 14 14 15 16 19 23 25 28 31 31 31 31 29 28 28 28 29 30 32 33 31 31 32 30 29 30 27 25 26 29 29 29 30 29 27 28 29 29 29 29 28 27 25 24
14 14 14 15 16 17 18 18 17 16 17 19 19 20 21 20 19 18 18 18 18 18 19 20 19 17 16 14 13 10 8 9 9 8 10 11 12 16 12 4 8 11 12 13 13 13 14 16 19 22 25 27 29 29 28 27 26 27 27 27 28 29 30 31 30 29 30 30 30 30 28 27 29 29 28 29 30 29 27 28 29 29 28 29 29 28 27 27
15 14 14 14 15 16 17 17 17 17 17 19 19 19 21 20 19 18 17 17 17 17 18 19 18 17 16 14 12 10 7 7 4 2 6 11 15 17 11 3 4 7 11 11 12 14 15 17 19 23 27 28 29 28 26 24 23 24 26 26 27 28 29 31 31 28 30 31 30 31 29 28 28 28 28 29 30 29 28 28 29 29 29 28 29 29 30 30
15 14 14 14 14 15 16 16 17 17 17 19 19 19 19 19 19 18 16 15 15 16 17 18 17 17 16 14 11 9 7 7 7 6 9 10 13 14 8 1 3 7 9 10 11 13 15 17 20 25 28 29 28 26 24 22 21 23 25 26 26 27 28 30 30 29 31 31 30 31 28 27 27 27 28 29 30 30 29 30 30 30 30 29 30 31 32 32
15 15 15 14 14 14 15 15 16 17 17 19 19 18 18 18 18 17 15 14 13 15 16 17 17 16 16 14 11 9 6 6 8 10 12 13 14 12 6 1 4 8 10 11 11 12 14 17 21 25 26 26 25 23 22 21 21 22 24 25 25 25 27 30 30 30 32 30 29 29 27 26 27 28 28 29 31 30 30 31 31 31 31 31 32 33 33 34
16 16 15 15 15 14 14 15 16 17 18 18 18 17 17 17 17 15 14 13 13 13 14 16 16 15 14 13 11 9 7 5 6 8 11 12 12 10 4 1 3 7 11 13 14 15 17 19 22 23 22 21 20 20 21 21 21 22 23 24 24 25 27 29 29 29 30 29 28 29 28 26 27 28 27 28 31 31 31 31 31 31 32 32 34 34 34 35
17 16 16 16 15 15 14 14 16 18 19 18 18 16 16 17 16 15 13 11 12 13 13 14 14 14 13 13 12 11 9 6 4 5 7 8 8 7 4 1 2 4 8 11 13 15 17 18 18 17 17 17 18 19 21 21 21 21 22 23 23 25 27 27 27 28 28 27 27 29 29 25 24 26 25 27 31 32 31 32 31 32 32 33 35 35 35 36
20 18 17 16 16 15 14 14 15 17 19 19 18 17 16 16 16 15 13 12 11 12 13 14 14 13 13 12 12 12 11 8 5 4 5 6 6 6 6 4 3 3 5 7 8 10 12 13 13 13 13 14 16 18 20 21 21 21 22 23 24 25 26 25 26 26 26 27 28 30 29 23 21 24 22 25 32 33 32 33 32 33 33 33 35 35 36 36
23 20 18 18 17 16 15 15 14 16 18 20 20 18 16 15 16 16 14 13 12 11 12 13 13 13 12 11 11 11 11 10 9 6 3 3 4 5 7 7 6 6 6 6 7 8 9 10 11 11 12 13 14 16 18 20 21 22 22 22 23 24 25 25 25 26 27 28 29 30 30 22 19 22 21 23 32 34 34 34 33 34 34 34 35 36 37 37
25 23 21 19 18 18 17 15 15 15 16 18 20 20 17 15 16 16 15 13 12 12 12 13 12 11 11 10 10 11 10 10 10 9 5 3 2 3 6 7 7 8 9 9 9 9 10 10 11 12 12 13 14 15 17 19 20 20 20 21 23 24 25 25 26 27 28 29 29 29 31 23 17 18 19 24 30 33 35 35 33 35 36 36 36 37 37 37
28 26 24 21 20 20 18 17 16 16 16 17 19 20 19 17 16 16 15 14 13 13 13 13 11 10 10 10 10 10 9 8 8 9 8 6 3 3 5 7 8 10 11 11 11 11 12 12 12 13 14 14 15 16 17 19 19 19 20 22 24 24 25 25 27 29 29 30 28 26 31 28 19 16 17 25 29 32 36 36 35 36 37 37 37 36 36 35
30 29 27 24 22 21 20 19 18 17 17 17 18 19 20 20 17 16 16 15 14 15 14 14 12 11 10 10 10 9 9 9 8 7 7 7 5 4 5 7 9 10 11 13 13 14 15 15 15 16 16 16 17 18 20 20 19 19 21 24 24 25 26 27 28 29 30 31 26 23 29 33 27 19 17 26 30 31 34 35 34 35 35 35 34 34 34 34
32 31 30 27 24 22 22 22 20 19 18 18 19 19 20 20 19 18 16 15 16 16 15 15 14 13 12 11 10 9 8 9 8 8 7 6 6 6 6 8 9 10 12 13 13 15 16 17 19 19 18 19 20 22 22 21 21 20 22 24 24 26 27 28 30 29 31 32 25 23 29 35 35 25 18 25 27 27 30 30 31 32 31 31 31 31 32 33
34 33 32 30 27 25 24 24 23 21 20 20 20 20 20 20 20 19 16 15 17 17 16 16 16 15 14 13 11 9 9 8 8 8 8 8 7 7 8 9 9 10 12 12 13 15 18 20 20 20 20 21 23 24 23 23 22 22 23 24 25 27 28 29 30 30 32 32 26 25 29 34 36 24 17 21 22 23 28 28 29 31 30 29 30 31 32 33
36 35 34 33 31 28 26 25 25 24 23 22 21 21 21 21 21 19 16 17 18 16 16 16 16 16 15 14 12 11 10 9 9 9 9 9 9 9 10 11 11 12 12 13 13 15 18 20 21 21 22 23 24 24 24 23 23 23 25 25 26 29 29 30 31 30 32 32 29 28 28 32 32 20 16 22 21 24 28 28 30 31 29 28 29 31 32 33
38 37 36 36 34 32 29 28 27 26 26 25 23 22 23 23 21 17 16 20 18 14 14 15 16 16 16 15 14 13 12 11 10 10 10 10 10 10 11 12 13 14 14 14 15 16 18 19 21 22 23 24 25 25 25 25 25 25 26 27 29 30 31 31 31 30 31 33 31 29 28 30 27 18 18 23 25 27 29 30 31 31 30 29 30 30 31 33
39 39 38 37 37 35 33 31 29 29 28 28 26 24 24 23 19 15 18 23 20 15 15 15 15 16 16 16 16 15 14 13 13 12 12 11 10 11 12 11 13 15 15 15 17 18 18 19 21 21 22 24 24 25 25 26 26 27 27 29 30 30 31 31 30 29 31 32 31 29 29 29 23 18 19 23 26 29 31 31 31 29 30 31 31 31 31 32
40 40 40 39 39 39 36 34 32 31 31 31 29 27 25 22 18 17 21 25 23 19 17 16 16 16 16 16 17 17 16 16 15 14 14 12 12 12 12 12 13 15 15 14 16 18 19 20 21 22 23 24 24 25 25 25 26 27 28 29 28 28 29 31 30 30 31 32 32 30 30 28 22 20 22 24 27 30 31 31 30 28 29 31 31 31 31 31
41 41 41 40 41 41 39 37 36 35 35 33 33 30 24 18 17 20 23 25 25 22 19 19 18 17 16 16 17 17 17 17 17 17 16 14 14 13 13 13 13 14 14 14 15 17 18 19 20 22 23 24 25 26 26 26 26 27 27 28 27 26 29 32 32 31 32 34 34 32 30 27 23 21 22 25 27 30 31 29 27 28 30 30 30 30 30 30
43 43 42 42 43 43 41 40 39 38 37 37 37 32 23 18 20 23 24 26 27 24 22 21 19 18 17 16 17 17 17 17 17 18 17 16 16 15 15 15 15 15 15 15 16 16 16 16 17 19 21 23 24 25 26 27 26 26 27 27 26 27 30 33 33 32 33 35 35 33 29 25 21 19 19 22 27 31 30 26 26 29 29 29 30 30 30 30
45 44 43 44 45 45 44 42 42 42 40 41 41 32 24 22 23 23 25 27 28 27 27 24 21 20 19 17 18 18 18 17 18 18 18 19 19 17 18 18 18 18 17 18 18 15 15 16 15 17 19 19 20 22 23 24 24 25 25 25 26 28 30 31 33 33 33 35 35 31 26 20 16 17 17 21 28 31 28 25 26 27 27 28 29 29 30 30
47 46 45 46 46 47 45 45 45 44 44 46 43 32 26 24 22 23 26 29 30 31 30 27 25 23 22 20 19 20 20 19 19 19 18 19 20 19 20 21 21 21 20 21 20 17 18 18 16 17 18 18 19 19 19 20 22 22 23 24 25 27 28 29 32 32 30 33 33 28 21 15 13 14 16 22 30 32 27 24 25 25 26 27 29 30 31 30
50 49 48 47 48 48 47 47 47 47 49 49 42 33 30 27 24 25 29 31 33 33 32 30 29 26 24 23 22 21 23 21 20 21 20 19 20 20 22 23 23 24 23 23 22 19 21 22 18 17 19 19 19 19 19 20 22 22 22 23 23 25 27 27 29 29 29 31 31 28 19 10 9 13 18 24 29 30 26 23 24 25 26 29 30 31 32 31
52 52 50 49 49 49 49 50 51 52 52 49 42 36 33 30 27 28 31 34 35 34 33 32 31 29 26 26 25 24 25 23 21 22 21 19 20 21 23 24 24 25 26 26 25 23 24 25 22 20 21 21 19 21 23 22 23 24 22 22 23 24 27 29 28 28 29 31 31 30 18 5 9 18 23 26 28 28 27 26 27 28 28 30 31 32 33 33
56 55 53 51 51 51 51 53 54 54 53 51 46 41 36 32 31 31 33 36 36 35 35 34 33 31 28 28 28 27 27 26 23 24 22 19 20 23 24 24 25 26 28 27 27 27 27 28 26 23 22 22 21 24 26 24 24 25 24 23 24 26 28 30 30 28 30 32 31 31 21 9 13 21 22 24 27 27 27 27 27 29 30 32 33 33 34 34
58 57 55 53 53 54 54 56 56 56 57 55 49 43 38 35 35 35 36 37 38 36 36 35 34 33 30 30 30 29 29 28 26 25 24 21 22 24 24 24 26 27 28 28 28 30 31 31 30 27 25 25 25 26 28 27 25 25 25 25 25 28 29 31 33 31 32 33 31 33 25 9 8 17 21 24 26 24 24 24 24 28 30 32 32 33 35 35
60 59 58 57 57 57 58 59 59 59 59 57 51 45 42 40 38 38 38 38 39 39 38 37 36 35 34 33 32 31 31 30 28 27 26 25 24 24 25 25 26 28 29 29 29 31 33 33 31 30 30 28 27 28 29 29 28 27 27 27 29 31 31 33 37 35 36 35 31 34 30 9 3 18 25 27 28 25 24 23 24 27 30 31 33 34 36 37
61 62 62 61 61 61 62 61 61 60 59 57 54 50 47 44 41 41 39 39 41 42 41 40 39 38 38 36 35 33 32 32 30 28 29 28 25 25 27 27 27 29 30 31 31 33 35 34 32 32 31 29 27 28 28 29 30 30 29 30 32 33 34 37 38 38 41 38 30 36 37 16 8 19 25 26 29 28 24 24 26 28 30 32 34 36 38 38
63 63 64 64 65 65 64 63 62 62 60 59 58 55 52 48 45 43 41 42 43 44 44 42 41 41 40 39 37 34 33 32 32 32 31 28 26 27 29 30 30 30 32 33 34 35 36 36 34 33 32 30 27 27 28 28 30 31 30 31 33 34 37 38 38 42 43 37 32 38 38 21 12 19 23 23 27 28 25 24 27 30 32 35 37 38 39 39
66 65 64 65 67 68 66 65 64 64 62 61 60 58 56 51 47 44 44 45 46 46 46 45 43 42 42 40 38 37 35 34 36 36 32 29 28 29 31 33 34 34 35 37 37 37 39 39 36 34 34 32 28 29 31 30 31 33 32 33 34 36 38 38 41 42 38 35 37 38 34 27 18 18 20 21 24 27 27 26 29 33 35 38 40 41 40 41
69 68 66 66 68 69 67 66 66 66 64 63 61 59 57 53 50 49 48 49 48 47 48 48 47 45 42 39 39 39 38 38 41 39 34 31 32 32 33 35 37 38 39 40 41 41 42 41 38 36 37 34 30 32 34 33 34 34 35 35 36 37 39 41 43 39 34 40 43 35 32 36 28 19 20 21 21 26 29 30 33 36 39 41 43 44 44 45
71 69 68 68 69 68 68 68 68 67 66 66 64 62 61 58 56 55 52 51 50 49 51 52 50 46 41 39 41 43 43 43 44 41 36 34 35 36 37 37 39 41 43 44 45 45 46 44 40 39 40 38 34 34 36 37 38 38 39 40 39 40 42 43 43 38 37 45 47 37 36 41 36 27 24 22 24 29 31 33 36 38 41 44 47 48 48 48
74 72 70 70 70 68 68 69 70 70 68 68 67 66 65 63 61 58 55 53 53 53 53 53 51 46 42 42 45 47 47 46 45 41 38 38 40 41 41 41 42 45 46 47 48 48 49 47 42 41 43 41 37 37 39 42 43 44 45 46 46 46 44 43 44 43 43 48 48 43 43 45 40 34 29 26 30 35 36 37 39 41 43 47 50 51 51 51
77 75 73 74 73 70 68 69 71 71 70 70 69 66 66 66 64 61 59 57 55 54 54 53 51 47 44 46 51 52 49 46 44 42 41 44 47 46 45 45 46 48 48 49 49 49 51 50 45 43 46 44 38 38 41 43 45 47 48 50 51 47 43 42 43 43 44 47 45 44 47 45 37 32 31 31 31 33 36 40 42 44 46 48 51 52 51 51
76 75 75 76 75 73 72 70 69 71 72 72 70 67 66 67 65 63 62 58 56 55 55 54 52 50 49 52 56 55 49 45 44 45 47 50 52 51 50 50 50 50 50 50 50 51 51 52 48 45 49 47 40 39 42 43 45 49 52 52 47 41 39 40 41 41 41 42 41 42 45 40 31 28 31 31 28 28 32 36 40 42 43 44 46 46 46 46
77 76 77 78 78 76 75 72 71 72 71 69 69 68 67 66 65 66 65 62 60 58 57 56 55 54 55 56 58 54 48 47 49 51 53 55 55 55 55 55 54 53 52 52 52 53 53 53 51 49 52 52 46 43 43 45 49 53 53 48 41 38 39 41 42 40 37 37 39 42 40 37 33 32 31 29 28 31 34 36 38 39 39 40 42 42 43 43
Wind_Direction
325 326 327 326 325 327 327 326 325 324 319 316 314 311 309 308 306 303 302 301 300 302 302 300 298 295 295 296 296 295 290 285 280 274 270 268 266 262 258 256 254 251 247 243 240 240 238 235 233 231 231 230 228 227 226 226 224 224 229 234 234 229 222 220 223 220 212 208 216 219 217 223 226 222 221 225 229 231 233 235 236 237 238 241 244 248 248 250
326 327 328 327 325 326 325 323 322 319 314 311 310 308 306 303 301 300 301 302 302 303 302 300 297 294 296 298 297 296 291 288 284 277 273 269 265 261 256 253 251 250 247 243 238 237 236 233 230 228 228 228 227 226 225 225 224 225 228 233 233 228 224 222 224 223 213 210 216 217 218 223 224 222 221 223 228 231 233 236 238 237 238 240 244 250 252 255
327 328 329 327 325 324 322 321 319 314 309 306 305 303 298 294 296 301 307 307 305 305 304 301 298 296 300 300 297 299 298 295 292 284 278 273 269 264 259 254 251 248 243 240 237 234 232 229 227 225 225 226 226 225 224 224 225 226 228 233 233 229 227 222 223 224 215 212 215 216 220 223 222 223 221 221 226 231 233 235 238 237 237 240 245 252 256 259
327 328 329 327 324 322 320 318 316 311 306 302 300 299 296 297 302 308 310 308 305 304 303 301 299 301 305 302 297 301 301 299 298 290 283 278 274 271 265 258 252 248 242 236 233 231 229 226 223 223 223 224 225 224 224 223 224 227 229 232 232 230 228 220 221 222 214 212 214 216 221 221 221 224 221 220 224 230 233 235 238 237 238 243 247 254 260 261
326 327 329 326 323 321 317 316 315 311 307 304 301 301 302 304 308 309 307 305 303 302 303 301 301 305 308 305 301 304 301 299 299 292 286 281 278 276 271 264 254 245 240 234 229 227 226 224 221 221 221 224 225 224 224 224 224 227 230 232 230 228 225 218 220 220 213 212 212 216 222 220 220 223 221 222 222 225 235 238 239 238 241 247 251 257 263 263
325 326 328 326 324 321 316 315 313 312 310 308 304 303 304 305 306 305 303 303 302 303 304 303 305 308 308 307 307 306 304 301 298 293 289 283 278 275 270 267 263 245 234 229 226 225 224 224 222 221 221 223 225 224 224 225 225 226 230 231 228 226 220 214 219 220 215 212 211 216 221 219 219 221 222 223 216 218 235 240 240 241 243 249 253 257 261 261
326 325 328 326 323 321 316 313 312 313 313 312 309 305 305 308 308 305 303 304 305 308 309 307 309 309 308 309 308 307 308 305 298 294 293 285 275 273 272 276 280 250 227 222 225 225 224 224 223 222 221 222 224 223 223 225 226 225 228 229 227 224 217 212 219 221 216 212 211 216 220 219 219 220 223 221 212 221 234 239 241 243 245 247 251 254 255 257
327 325 327 325 322 321 317 315 314 314 316 317 315 312 313 316 312 308 308 308 309 312 313 314 314 310 311 313 311 310 308 306 301 295 293 286 271 267 270 272 275 253 227 221 224 225 223 224 223 222 221 222 223 222 221 225 226 223 226 227 225 222 215 213 219 221 216 210 211 217 219 217 219 221 220 216 221 230 233 238 243 245 246 247 247 249 250 253
328 326 326 325 324 323 321 319 316 316 320 322 320 319 321 321 315 311 311 311 311 313 316 317 314 307 307 311 315 314 305 304 304 297 291 279 262 254 250 248 254 251 234 225 224 223 222 223 222 221 221 221 222 220 220 224 225 221 223 226 223 218 214 215 219 220 214 209 213 218 215 211 219 221 211 213 230 235 234 237 245 244 245 248 246 247 249 250
329 326 325 324 325 326 324 320 317 319 322 322 321 321 323 322 316 311 311 311 310 314 316 317 315 305 300 305 313 313 305 305 307 299 288 267 248 244 239 236 242 247 237 226 223 221 220 220 220 220 220 220 219 218 220 224 223 220 223 224 219 216 217 221 222 217 210 209 214 215 207 207 220 217 198 220 233 236 237 239 244 243 242 246 246 247 251 252
330 326 323 323 325 327 325 321 319 320 321 322 322 322 323 322 317 312 310 309 311 315 318 317 315 308 301 304 311 312 309 308 308 301 284 243 227 235 242 240 241 243 235 225 221 219 217 217 218 219 219 218 218 219 221 222 220 219 222 219 217 221 226 226 219 211 207 209 213 212 205 208 219 210 198 229 236 236 240 241 243 243 241 245 247 248 252 254
329 327 323 322 323 325 325 322 319 318 319 320 321 322 324 323 319 313 307 308 312 317 319 318 317 315 312 310 311 314 315 311 307 304 279 234 229 239 248 246 242 239 231 222 217 215 214 215 217 218 218 218 218 219 218 217 216 217 218 221 226 229 225 217 209 206 207 209 211 213 209 208 217 212 212 232 239 238 239 240 243 244 243 245 247 249 253 256
326 326 325 323 321 322 323 320 318 318 318 319 320 321 323 324 321 314 309 311 315 320 322 320 322 324 321 319 317 318 318 311 309 315 303 264 251 247 245 240 236 232 223 215 213 211 212 216 217 217 217 217 216 214 212 213 214 217 223 227 227 220 210 204 202 204 208 208 211 217 212 207 217 221 223 233 239 240 239 241 244 244 244 245 248 251 255 259
322 325 326 324 321 318 319 318 318 317 317 318 319 321 323 324 322 318 315 316 319 324 325 324 327 327 325 325 323 322 317 306 305 326 349 341 283 237 236 239 235 224 213 209 209 210 212 214 215 214 213 209 207 207 208 210 215 223 226 218 211 204 197 198 200 204 209 209 213 220 211 202 219 228 229 235 238 240 240 243 245 245 246 246 249 253 256 260
317 321 324 325 322 318 316 316 317 317 317 316 318 320 322 322 323 321 319 319 322 327 329 328 330 330 330 327 322 324 319 306 301 316 336 341 295 250 238 243 238 219 210 208 207 209 211 212 212 211 208 204 204 205 207 213 220 222 211 200 199 195 192 196 201 206 210 212 216 221 211 200 220 232 232 236 240 240 241 244 246 247 247 248 250 252 255 259
313 316 319 322 323 320 317 315 316 317 315 315 317 319 320 321 323 322 320 320 324 330 331 332 334 338 339 329 323 326 321 321 312 306 330 351 338 315 269 243 232 210 197 201 204 206 209 212 212 210 210 207 206 208 214 221 220 209 194 191 195 193 193 198 204 209 211 215 221 223 213 203 220 233 234 237 241 241 242 245 249 250 250 251 251 252 255 259
309 311 314 318 319 320 319 317 316 316 313 314 317 319 318 319 322 321 320 321 327 333 336 337 341 345 345 336 329 325 317 324 323 315 330 339 338 338 317 249 231 212 186 186 197 202 207 211 211 211 212 210 211 217 221 219 208 193 188 191 193 195 198 201 207 214 215 218 224 224 214 208 223 235 236 239 242 242 245 249 252 254 255 255 255 255 256 258
306 308 311 313 314 316 318 318 316 314 312 312 316 318 317 319 320 319 319 322 329 338 341 341 346 350 349 344 333 324 309 313 325 331 326 320 329 344 346 284 233 218 194 188 197 203 208 210 211 214 216 217 220 220 210 200 193 188 188 192 196 201 204 206 210 218 222 222 225 226 218 214 227 237 239 241 244 244 247 252 255 257 259 260 261 261 260 260
303 306 309 310 311 311 313 316 314 313 311 311 314 315 315 317 317 316 318 323 330 341 345 343 348 353 352 350 339 327 309 285 291 298 289 305 324 337 344 322 228 202 188 190 198 205 210 214 218 221 222 220 215 204 190 184 186 188 190 195 201 204 209 213 212 219 227 226 227 229 223 220 229 239 245 247 248 248 248 252 256 259 262 264 266 267 267 266
299 303 307 309 311 310 309 310 310 310 310 309 311 312 313 314 314 313 316 323 331 341 347 346 349 354 353 353 346 333 313 267 242 233 253 285 311 322 337 338 182 165 164 172 188 200 207 209 211 213 210 204 194 186 182 182 185 191 196 200 204 207 214 218 216 222 229 227 229 232 226 224 231 240 248 252 254 253 254 255 256 259 262 265 267 268 269 270
294 298 303 306 310 311 309 305 304 305 306 306 308 312 312 311 311 309 311 321 332 340 346 346 348 353 352 355 353 344 329 278 249 245 256 276 292 300 324 44 153 153 153 158 166 181 191 192 193 193 189 183 179 178 181 185 190 197 201 204 208 212 219 222 220 224 231 230 232 235 229 226 233 241 248 255 259 259 259 260 260 263 265 266 267 268 269 270
289 292 296 301 305 309 310 306 300 299 302 304 307 312 311 309 308 306 307 316 328 338 344 345 346 350 354 359 358 352 346 308 264 256 264 277 284 284 296 52 126 146 154 158 163 171 179 183 183 180 176 175 176 181 187 192 196 201 205 209 213 218 224 226 224 228 234 234 235 239 235 231 237 245 248 255 260 262 263 263 265 267 269 270 270 270 270 270
283 286 290 294 298 303 308 307 301 297 298 300 304 308 309 309 307 305 306 311 322 332 338 343 345 346 352 0 2 357 353 338 294 281 286 284 275 264 256 228 142 148 153 156 162 167 172 175 176 173 174 179 183 189 194 197 200 205 210 213 218 224 228 230 231 234 238 240 241 243 242 237 242 249 252 259 263 264 266 267 269 269 269 270 271 271 271 271
278 280 283 287 291 295 301 304 304 299 295 295 298 303 307 308 306 305 308 310 318 328 332 337 341 344 348 353 0 2 357 350 335 309 306 298 275 248 235 228 216 201 174 164 168 170 170 173 176 177 180 186 191 195 199 202 206 212 216 219 224 229 233 235 237 240 244 247 248 250 249 241 242 250 254 262 267 268 269 270 271 271 271 271 271 272 272 273
275 275 278 281 284 288 292 298 302 302 298 294 293 295 300 303 302 304 307 309 316 326 329 331 335 339 343 348 355 358 356 352 345 336 327 313 292 249 234 232 231 231 222 207 200 192 189 188 188 191 192 195 200 203 206 209 213 218 222 227 231 235 239 241 243 245 247 250 253 258 259 246 237 250 254 259 267 270 271 271 272 273 273 273 273 274 275 276
272 273 273 276 280 282 285 291 295 299 299 295 291 290 292 295 297 299 302 304 311 320 324 324 327 332 336 341 346 345 348 350 347 344 341 326 314 261 245 240 236 235 233 231 226 219 216 210 206 209 210 209 211 213 217 218 219 224 229 235 239 242 244 247 249 251 252 254 256 263 268 257 234 244 256 257 263 269 271 271 271 272 273 273 273 273 274 275
270 271 271 272 275 278 280 283 286 289 293 296 294 290 289 289 290 293 295 299 303 309 313 315 318 322 325 329 332 335 337 340 343 343 337 329 310 263 247 243 240 237 236 234 228 228 232 229 224 224 222 221 222 223 227 228 227 229 235 241 246 249 251 253 256 258 259 260 260 266 274 269 244 232 252 260 261 265 268 270 271 272 273 273 273 274 274 275
267 269 270 270 271 274 277 278 278 281 285 290 293 293 290 287 287 287 288 293 295 296 301 304 304 306 310 313 316 322 325 324 328 328 326 325 309 281 251 239 238 236 238 235 226 227 235 236 234 232 229 228 229 230 232 236 236 237 242 247 251 255 258 260 260 262 263 262 261 266 272 273 264 252 258 263 263 264 266 268 270 269 270 271 273 274 275 276
265 267 268 269 269 270 273 275 275 277 280 284 289 292 291 289 287 285 286 289 287 288 292 294 295 297 298 297 297 303 307 307 309 307 305 305 295 283 262 247 240 234 235 236 227 226 233 237 237 236 235 234 235 236 237 240 243 244 248 252 256 259 261 262 263 264 264 263 264 266 269 272 272 272 269 263 263 264 263 265 267 267 268 270 271 273 273 274
263 265 267 268 267 267 269 272 273 273 274 277 281 285 288 290 289 288 292 288 279 280 284 286 288 290 290 289 289 289 289 288 286 286 290 288 281 274 266 260 253 244 242 241 234 230 233 237 240 240 241 241 241 243 243 244 247 249 252 255 257 259 261 263 264 264 266 268 270 269 268 270 273 279 276 264 261 260 260 261 263 265 266 269 272 274 274 275
262 263 265 266 266 266 266 267 270 271 271 271 274 278 282 285 288 294 295 284 277 279 281 281 282 282 283 284 284 282 281 278 270 270 275 278 279 275 267 264 262 257 252 249 244 239 237 240 243 243 244 244 245 247 249 249 250 251 254 256 257 259 260 262 264 266 269 272 272 268 265 267 271 280 277 269 264 260 260 262 262 264 266 268 269 271 273 274
261 261 263 264 265 265 264 265 266 268 268 268 268 271 275 279 288 297 289 280 282 285 279 277 278 278 278 278 278 277 276 272 268 269 269 269 272 273 270 268 267 264 259 256 253 248 244 243 244 244 246 248 249 250 251 252 253 253 254 256 256 257 259 260 261 264 266 268 269 268 266 266 271 279 273 270 269 266 266 266 266 269 273 272 269 267 266 267
260 260 261 262 264 264 263 263 263 265 266 267 266 266 268 274 284 290 282 279 284 285 280 279 278 275 274 274 273 273 272 269 269 268 267 267 267 269 271 270 268 266 264 262 260 257 254 250 249 248 249 250 252 252 252 253 254 255 255 255 256 258 261 262 262 262 263 266 268 269 269 270 276 280 271 268 269 270 270 270 270 273 274 274 271 267 263 262
259 259 259 260 261 262 262 262 262 263 263 264 264 263 265 273 280 278 277 280 284 287 283 278 274 273 273 272 271 271 270 268 268 266 264 263 263 263 266 266 266 268 268 265 263 263 261 258 257 255 252 253 254 254 253 253 254 255 255 256 258 262 265 266 267 266 267 269 270 271 272 277 283 280 272 268 268 268 268 269 272 273 271 271 270 269 267 266
257 257 257 258 259 260 261 261 261 261 261 263 262 261 266 274 272 269 273 278 282 285 281 275 273 272 272 271 269 268 267 265 265 264 262 259 257 257 259 263 265 267 269 268 264 262 261 261 261 260 259 258 257 257 258 256 256 257 259 261 262 264 266 267 268 269 271 273 274 276 279 284 285 278 271 267 265 264 262 264 269 271 270 269 270 272 272 272
255 256 256 256 257 258 258 259 260 260 260 261 260 260 266 269 263 264 268 272 275 278 277 275 274 273 271 269 269 268 266 264 262 261 261 259 255 254 255 259 262 264 266 267 263 261 262 261 260 261 261 259 259 260 261 260 260 261 262 265 266 264 265 267 270 272 274 276 278 280 283 284 281 273 266 264 263 261 261 263 266 267 269 272 274 274 274 274
253 254 254 254 255 256 256 257 258 259 260 260 260 260 262 261 260 262 264 266 270 271 271 271 272 272 271 267 265 266 266 264 262 261 260 260 258 256 256 257 258 260 260 261 261 262 264 262 258 258 258 259 260 260 261 263 264 263 263 264 264 264 266 270 273 274 275 277 277 278 280 278 269 263 260 260 260 260 261 264 266 269 273 275 275 275 274 273
252 252 252 253 254 255 255 256 256 257 258 258 258 259 258 257 259 262 261 262 264 265 266 268 268 268 269 267 263 263 264 263 263 263 261 261 261 259 258 258 258 258 257 257 258 259 262 261 256 257 260 260 261 261 262 264 263 262 262 261 262 264 266 268 270 272 273 273 273 273 275 273 263 258 258 258 260 262 264 267 270 274 276 275 275 275 274 273
250 251 251 252 253 254 255 255 256 256 256 257 258 259 258 257 256 257 258 257 259 262 264 265 266 264 265 267 265 262 262 262 261 263 263 263 263 261 258 257 258 259 259 259 259 257 258 259 255 255 259 259 260 263 262 260 260 260 259 261 263 264 266 266 266 270 272 272 275 277 276 276 264 254 252 255 261 266 271 274 275 276 276 275 275 275 276 277
248 249 250 250 252 253 254 255 255 255 256 258 259 257 255 255 253 253 255 256 257 260 263 263 264 264 263 264 264 263 262 262 260 260 261 262 262 260 259 258 258 260 261 261 261 260 259 260 258 253 254 258 259 261 259 258 260 261 261 264 264 265 267 267 267 270 273 275 278 279 278 280 255 249 249 255 262 268 274 275 276 276 275 274 274 275 276 277
247 248 249 249 250 251 252 253 254 255 257 258 256 254 253 252 251 251 253 256 257 258 261 263 263 264 263 262 263 263 261 261 259 259 261 260 259 258 259 260 259 258 260 261 263 263 262 262 260 255 254 257 257 258 260 260 261 264 265 265 265 266 267 269 271 270 270 272 274 277 280 274 256 255 255 259 262 266 272 273 274 275 273 272 273 273 274 274
247 247 248 249 250 250 251 251 252 254 255 255 254 254 252 249 248 248 250 255 257 258 260 262 264 264 263 261 261 260 260 260 260 260 261 258 255 256 257 259 260 260 261 262 262 263 264 263 263 261 258 256 255 257 260 261 262 264 266 267 268 268 268 270 270 268 268 269 271 278 280 268 266 280 278 271 269 269 271 272 273 273 272 272 272 271 271 271
247 246 247 248 248 249 249 250 251 251 253 255 256 255 253 249 247 248 249 253 258 259 259 260 262 262 261 259 258 258 259 260 259 261 261 258 256 257 257 256 258 260 262 261 261 262 263 264 265 264 261 258 257 259 261 265 266 265 267 268 267 266 267 267 268 270 269 267 270 276 273 251 288 291 281 278 279 277 274 273 273 272 272 271 270 269 270 272
249 246 246 246 247 247 248 249 250 252 253 255 256 254 252 249 247 247 248 251 255 257 257 257 258 259 260 259 258 258 259 261 260 260 260 260 259 258 258 257 257 259 261 261 261 261 262 263 264 264 264 264 263 264 264 265 267 266 265 265 265 266 266 265 268 270 269 269 274 275 272 268 270 270 268 273 278 278 278 278 275 272 270 270 269 268 270 274
252 249 247 247 246 247 247 248 250 251 252 253 254 254 252 250 248 247 248 249 251 254 255 255 255 257 258 259 260 261 262 263 263 260 259 260 260 259 260 259 258 258 259 260 260 260 262 263 265 266 268 269 268 267 265 263 265 266 265 264 266 266 266 267 268 268 270 277 277 272 275 281 264 255 261 267 272 277 281 278 274 269 267 267 268 268 271 276
255 254 252 250 249 249 249 249 250 251 252 252 253 254 254 252 251 250 249 249 249 251 254 256 255 255 256 259 261 263 263 263 262 259 258 259 259 259 259 260 260 258 258 258 259 260 261 263 265 267 268 270 270 268 266 264 263 263 264 264 264 264 266 268 267 268 275 281 274 273 282 285 266 255 263 265 270 278 280 274 268 264 263 265 267 269 272 276
254 254 256 256 254 252 251 251 252 252 253 253 254 255 255 255 253 250 248 248 248 250 252 254 254 254 255 258 261 262 261 261 260 260 259 259 258 258 258 259 260 259 258 259 259 259 260 261 263 266 267 268 268 268 269 267 264 263 263 263 263 265 266 266 268 273 279 277 275 279 284 280 274 266 264 266 271 273 271 266 262 261 263 266 269 272 275 277
253 253 255 258 257 256 254 254 253 253 253 253 253 253 253 253 251 249 247 247 248 248 250 251 252 254 255 256 257 258 258 258 260 261 261 261 260 258 256 256 257 258 259 259 260 261 262 262 262 263 265 264 264 266 268 269 268 266 265 264 262 262 262 266 272 276 276 276 279 282 279 276 277 274 269 269 268 263 259 257 259 261 264 266 270 273 275 278
253 254 255 256 257 258 258 257 255 253 253 253 253 252 252 252 251 250 249 247 247 247 248 250 252 253 255 255 255 255 255 256 259 262 262 262 261 258 256 255 256 258 259 260 262 264 265 266 264 264 265 265 264 264 266 267 268 268 267 266 264 261 262 267 271 273 273 276 280 281 277 276 278 280 278 268 259 258 258 257 258 259 259 262 267 271 273 275
254 255 256 256 257 257 258 258 257 255 254 253 253 254 254 253 252 252 251 250 249 249 250 252 253 253 253 254 254 253 253 255 258 261 261 260 259 258 257 256 255 257 258 260 263 264 267 269 268 268 268 268 265 265 265 266 267 268 267 264 263 265 269 271 272 273 274 275 278 280 278 278 283 286 281 270 261 260 261 261 260 259 259 261 264 268 271 273
255 255 256 257 256 255 255 256 256 256 255 253 254 255 255 255 256 255 253 253 252 252 251 251 252 252 250 250 252 253 255 256 258 258 257 257 257 257 257 257 256 256 258 260 262 264 266 268 269 269 269 269 267 266 266 267 268 268 265 263 266 273 278 277 275 273 274 277 280 279 279 283 289 285 278 277 276 269 262 259 258 259 261 263 265 267 269 271
256 256 257 257 257 255 256 256 256 256 256 254 254 254 255 256 256 255 254 253 251 250 251 251 251 251 249 249 251 254 256 256 254 253 253 254 255 256 257 258 259 259 259 260 261 263 265 267 269 269 269 270 268 266 267 268 267 266 265 268 274 278 276 275 274 275 279 283 281 279 281 287 287 281 279 280 278 272 265 261 260 261 264 266 268 268 268 270
Height
5758 5755 5753 5751 5750 5748 5747 5746 5745 5743 5742 5740 5739 5738 5736 5735 5734 5733 5733 5732 5731 5730 5730 5730 5728 5727 5725 5724 5722 5721 5719 5717 5715 5713 5712 5711 5711 5712 5713 5714 5714 5715 5716 5718 5720 5721 5723 5726 5728 5731 5733 5736 5738 5741 5744 5746 5749 5750 5751 5750 5752 5758 5764 5766 5769 5771 5775 5778 5776 5777 5782 5783 5785 5789 5792 5794 5795 5797 5799 5801 5803 5804 5806 5805 5804 5804 5808 5811
5756 5754 5752 5750 5749 5747 5746 5745 5744 5742 5741 5739 5738 5737 5735 5734 5733 5732 5731 5731 5730 5729 5728 5727 5726 5724 5723 5721 5720 5719 5717 5714 5712 5709 5709 5708 5707 5707 5708 5709 5709 5710 5712 5713 5715 5717 5720 5722 5724 5727 5730 5733 5735 5738 5741 5743 5745 5747 5748 5748 5751 5758 5762 5765 5767 5768 5772 5773 5772 5776 5779 5780 5783 5787 5789 5791 5793 5795 5797 5800 5800 5802 5803 5802 5802 5803 5806 5809
5755 5753 5751 5749 5748 5746 5745 5744 5742 5741 5739 5738 5737 5735 5734 5732 5731 5731 5731 5730 5728 5727 5726 5724 5723 5721 5720 5719 5717 5715 5713 5711 5708 5706 5706 5705 5704 5704 5704 5704 5705 5706 5707 5709 5711 5714 5716 5719 5721 5724 5727 5729 5732 5735 5737 5740 5742 5743 5745 5745 5750 5757 5759 5762 5764 5765 5768 5769 5770 5774 5776 5778 5781 5784 5786 5789 5791 5793 5796 5798 5798 5798 5798 5799 5801 5801 5804 5807
5754 5752 5750 5748 5747 5745 5744 5743 5741 5740 5738 5737 5736 5734 5733 5732 5731 5730 5729 5728 5726 5725 5724 5722 5720 5719 5718 5716 5714 5712 5710 5708 5706 5704 5703 5703 5702 5701 5701 5701 5701 5701 5702 5704 5707 5710 5713 5716 5718 5721 5724 5727 5729 5732 5735 5738 5740 5740 5741 5743 5750 5755 5756 5759 5761 5762 5764 5765 5768 5772 5772 5776 5779 5781 5784 5787 5789 5792 5795 5795 5794 5794 5795 5797 5800 5801 5803 5805
5753 5751 5749 5747 5746 5745 5743 5742 5741 5739 5738 5736 5735 5734 5733 5732 5731 5729 5728 5726 5725 5723 5722 5720 5718 5717 5715 5714 5712 5710 5707 5705 5704 5702 5700 5699 5699 5698 5697 5697 5697 5697 5698 5700 5703 5706 5709 5712 5715 5718 5721 5724 5727 5730 5732 5735 5737 5737 5739 5743 5749 5752 5753 5757 5759 5758 5760 5762 5766 5768 5770 5774 5777 5779 5783 5784 5787 5792 5793 5790 5788 5790 5794 5797 5799 5800 5801 5803
5751 5750 5748 5747 5745 5744 5742 5741 5739 5738 5737 5736 5734 5733 5732 5731 5730 5728 5726 5725 5723 5722 5720 5718 5717 5715 5713 5711 5709 5707 5705 5702 5700 5699 5697 5696 5695 5695 5694 5693 5692 5693 5695 5698 5700 5702 5706 5709 5713 5716 5719 5722 5724 5727 5730 5732 5733 5734 5737 5742 5747 5749 5751 5755 5755 5755 5758 5760 5763 5765 5768 5772 5775 5779 5781 5782 5787 5791 5788 5784 5785 5789 5794 5796 5798 5799 5799 5800
5750 5749 5748 5746 5744 5743 5741 5740 5739 5737 5736 5735 5734 5732 5731 5730 5729 5727 5725 5724 5722 5720 5719 5717 5715 5712 5710 5708 5706 5704 5703 5700 5698 5695 5694 5693 5691 5691 5690 5690 5690 5691 5693 5696 5698 5699 5702 5706 5710 5713 5716 5719 5721 5724 5727 5729 5730 5733 5737 5741 5745 5746 5749 5752 5752 5753 5755 5758 5761 5762 5766 5771 5775 5777 5777 5781 5788 5787 5781 5780 5784 5789 5793 5795 5796 5796 5797 5797
5749 5748 5747 5745 5743 5742 5740 5739 5738 5736 5735 5734 5732 5731 5730 5729 5727 5726 5724 5722 5720 5719 5717 5715 5713 5710 5708 5705 5703 5702 5700 5698 5695 5693 5691 5690 5689 5688 5688 5688 5690 5690 5692 5694 5695 5697 5700 5704 5708 5711 5714 5716 5719 5721 5724 5725 5727 5732 5736 5739 5741 5743 5746 5748 5749 5750 5753 5756 5759 5760 5765 5771 5773 5773 5776 5782 5784 5779 5777 5780 5784 5788 5791 5792 5793 5793 5793 5793
5747 5746 5745 5744 5743 5741 5739 5738 5737 5736 5734 5733 5731 5730 5729 5728 5726 5724 5722 5721 5719 5717 5715 5713 5711 5709 5706 5704 5701 5699 5697 5695 5693 5690 5688 5687 5687 5687 5688 5688 5689 5690 5690 5692 5693 5695 5698 5702 5705 5708 5711 5714 5716 5719 5721 5722 5725 5730 5733 5736 5738 5740 5743 5745 5746 5748 5752 5755 5757 5759 5765 5770 5769 5770 5778 5781 5777 5773 5777 5781 5783 5787 5789 5790 5790 5790 5790 5791
5746 5745 5744 5743 5742 5740 5739 5737 5736 5735 5734 5732 5730 5729 5728 5726 5724 5723 5721 5719 5717 5715 5713 5711 5709 5707 5704 5702 5699 5697 5695 5693 5691 5688 5686 5685 5686 5686 5687 5688 5689 5689 5689 5690 5692 5694 5697 5701 5704 5706 5709 5711 5714 5716 5718 5720 5724 5729 5731 5733 5736 5738 5740 5742 5744 5748 5751 5753 5755 5759 5764 5767 5766 5770 5778 5775 5770 5773 5777 5780 5781 5785 5787 5787 5788 5788 5788 5788
5745 5744 5743 5742 5741 5739 5738 5736 5735 5735 5733 5732 5730 5728 5726 5725 5723 5721 5719 5717 5716 5714 5711 5709 5707 5705 5702 5700 5697 5695 5693 5692 5690 5687 5685 5684 5684 5685 5685 5686 5687 5687 5688 5689 5690 5693 5696 5700 5702 5704 5706 5709 5712 5714 5716 5719 5724 5727 5729 5731 5734 5736 5738 5740 5744 5747 5749 5751 5755 5758 5761 5763 5764 5771 5775 5770 5769 5774 5776 5778 5780 5782 5784 5784 5785 5785 5785 5786
5744 5742 5741 5740 5740 5738 5737 5736 5735 5734 5733 5731 5729 5727 5725 5723 5722 5720 5717 5716 5715 5713 5710 5708 5705 5703 5701 5698 5695 5694 5692 5691 5689 5687 5685 5684 5684 5684 5685 5685 5685 5686 5686 5688 5690 5692 5695 5698 5700 5702 5705 5708 5710 5712 5715 5719 5723 5725 5727 5729 5732 5733 5736 5739 5742 5745 5747 5751 5754 5756 5758 5762 5765 5769 5771 5767 5769 5772 5774 5777 5778 5779 5781 5781 5782 5782 5782 5783
5743 5741 5740 5739 5738 5737 5736 5735 5734 5733 5732 5730 5728 5726 5724 5722 5720 5718 5716 5715 5714 5712 5709 5707 5704 5702 5699 5697 5694 5693 5692 5690 5689 5688 5685 5684 5683 5683 5684 5684 5684 5684 5685 5687 5689 5692 5694 5696 5698 5701 5703 5706 5708 5711 5715 5718 5721 5723 5725 5728 5729 5731 5734 5738 5741 5744 5746 5750 5753 5753 5756 5762 5765 5766 5767 5766 5767 5770 5773 5774 5775 5777 5778 5779 5779 5779 5780 5781
5742 5740 5739 5738 5737 5736 5735 5734 5733 5732 5731 5729 5727 5725 5723 5721 5719 5717 5715 5713 5712 5711 5709 5706 5703 5701 5699 5696 5694 5692 5692 5690 5689 5688 5685 5684 5684 5684 5684 5683 5683 5684 5685 5687 5689 5692 5694 5696 5698 5699 5701 5704 5707 5710 5714 5716 5719 5721 5723 5726 5727 5730 5734 5737 5740 5743 5745 5749 5751 5751 5756 5762 5763 5763 5764 5764 5765 5768 5770 5772 5773 5775 5775 5776 5777 5777 5778 5779
5741 5739 5738 5737 5736 5735 5734 5733 5732 5731 5729 5728 5726 5724 5722 5720 5718 5716 5713 5712 5711 5710 5708 5705 5703 5700 5698 5695 5693 5692 5691 5690 5689 5687 5686 5684 5684 5684 5684 5683 5683 5684 5685 5687 5689 5691 5693 5695 5696 5698 5701 5704 5707 5710 5712 5715 5717 5719 5722 5724 5726 5730 5734 5736 5739 5742 5744 5747 5749 5751 5756 5761 5761 5760 5761 5762 5763 5766 5768 5770 5771 5772 5773 5774 5774 5775 5776 5776
5739 5738 5737 5736 5735 5734 5733 5732 5731 5729 5728 5726 5725 5723 5721 5719 5717 5715 5713 5711 5710 5709 5707 5705 5702 5700 5697 5695 5693 5692 5691 5690 5688 5687 5686 5685 5684 5684 5683 5683 5683 5684 5686 5687 5689 5692 5693 5695 5697 5698 5701 5704 5706 5709 5712 5714 5716 5719 5721 5723 5726 5730 5733 5736 5739 5740 5743 5746 5748 5750 5755 5759 5759 5757 5759 5761 5761 5763 5766 5767 5767 5768 5769 5771 5771 5772 5773 5774
5738 5737 5736 5735 5734 5733 5732 5731 5730 5728 5727 5725 5724 5723 5721 5718 5717 5715 5713 5711 5710 5708 5706 5705 5702 5700 5697 5695 5693 5692 5690 5690 5688 5686 5685 5685 5685 5684 5682 5682 5683 5684 5685 5687 5689 5692 5693 5695 5697 5699 5701 5704 5707 5709 5711 5713 5715 5717 5720 5723 5726 5729 5732 5735 5738 5739 5742 5744 5746 5749 5753 5757 5756 5755 5757 5759 5759 5761 5764 5765 5764 5765 5766 5767 5768 5769 5770 5771
5737 5735 5734 5733 5733 5732 5731 5730 5729 5727 5725 5724 5723 5722 5720 5718 5716 5714 5712 5710 5709 5708 5706 5704 5702 5700 5698 5695 5694 5692 5691 5690 5689 5687 5686 5685 5685 5684 5683 5682 5683 5684 5685 5687 5689 5691 5693 5695 5697 5699 5702 5705 5707 5709 5711 5712 5714 5717 5720 5723 5726 5729 5732 5734 5736 5739 5741 5743 5745 5748 5751 5754 5753 5753 5755 5756 5756 5759 5762 5762 5762 5762 5763 5764 5765 5766 5767 5768
5736 5734 5733 5732 5731 5731 5730 5729 5728 5726 5724 5723 5722 5721 5719 5718 5716 5714 5712 5710 5709 5707 5706 5704 5702 5700 5698 5696 5694 5693 5692 5691 5691 5690 5689 5688 5686 5685 5685 5684 5684 5684 5686 5687 5689 5691 5693 5696 5698 5700 5702 5704 5706 5708 5710 5712 5714 5717 5720 5723 5726 5729 5731 5733 5736 5738 5739 5742 5744 5747 5749 5751 5752 5752 5752 5753 5754 5757 5759 5760 5759 5760 5761 5762 5762 5763 5763 5764
5734 5733 5732 5730 5730 5729 5729 5728 5727 5725 5724 5722 5720 5720 5718 5717 5716 5714 5712 5710 5708 5707 5706 5704 5703 5701 5699 5696 5695 5693 5692 5692 5692 5692 5691 5691 5689 5688 5688 5687 5686 5686 5686 5688 5690 5692 5694 5696 5698 5700 5701 5703 5705 5707 5709 5712 5715 5717 5720 5723 5726 5729 5730 5732 5735 5737 5738 5741 5743 5745 5747 5750 5750 5750 5750 5751 5751 5754 5756 5757 5757 5758 5758 5759 5759 5759 5760 5761
5733 5731 5730 5729 5728 5727 5727 5727 5726 5725 5723 5721 5719 5718 5717 5716 5715 5713 5712 5710 5708 5706 5706 5704 5703 5702 5699 5697 5695 5694 5693 5692 5693 5693 5693 5692 5691 5690 5690 5689 5689 5688 5688 5689 5691 5693 5695 5697 5699 5700 5702 5703 5705 5707 5710 5712 5715 5718 5720 5723 5725 5728 5729 5731 5734 5736 5736 5739 5742 5742 5745 5748 5749 5749 5749 5749 5749 5751 5753 5753 5754 5754 5755 5756 5756 5756 5757 5757
5731 5730 5729 5728 5727 5726 5725 5725 5724 5724 5722 5721 5719 5717 5716 5715 5714 5713 5711 5709 5707 5706 5705 5704 5703 5702 5700 5698 5696 5695 5694 5693 5693 5693 5693 5693 5692 5691 5691 5691 5691 5691 5691 5691 5693 5695 5696 5698 5700 5701 5703 5704 5706 5708 5711 5713 5715 5718 5720 5723 5725 5727 5728 5730 5733 5735 5735 5738 5739 5739 5742 5746 5747 5747 5748 5748 5746 5748 5749 5749 5750 5751 5751 5752 5751 5752 5753 5753
5729 5728 5727 5727 5726 5724 5723 5723 5723 5722 5721 5720 5718 5716 5715 5714 5713 5712 5711 5709 5707 5705 5704 5704 5703 5702 5700 5699 5697 5696 5695 5694 5693 5693 5692 5692 5692 5692 5692 5692 5692 5693 5694 5694 5695 5696 5698 5699 5700 5702 5703 5705 5707 5709 5711 5713 5716 5718 5720 5722 5724 5726 5727 5730 5732 5733 5734 5735 5736 5737 5739 5744 5745 5745 5746 5746 5743 5744 5745 5745 5747 5747 5748 5748 5748 5748 5749 5749
5728 5726 5725 5725 5724 5723 5722 5721 5721 5720 5720 5719 5717 5716 5714 5713 5712 5711 5710 5709 5707 5705 5704 5703 5703 5702 5700 5699 5698 5696 5695 5694 5694 5693 5692 5692 5692 5692 5692 5693 5693 5694 5695 5696 5697 5698 5699 5700 5701 5702 5704 5706 5708 5710 5712 5714 5716 5718 5720 5722 5724 5725 5726 5728 5730 5731 5732 5733 5734 5734 5735 5740 5743 5742 5744 5744 5739 5739 5741 5741 5742 5743 5744 5744 5744 5744 5744 5745
5726 5725 5723 5723 5723 5722 5721 5720 5719 5719 5718 5717 5716 5715 5713 5712 5711 5711 5710 5708 5706 5705 5704 5703 5702 5702 5700 5699 5698 5697 5696 5695 5694 5694 5693 5693 5693 5693 5693 5694 5694 5695 5696 5698 5699 5699 5700 5701 5702 5703 5705 5706 5708 5710 5712 5714 5716 5717 5720 5722 5723 5724 5725 5726 5728 5728 5729 5731 5732 5731 5731 5736 5740 5740 5742 5741 5736 5736 5737 5737 5738 5739 5739 5740 5739 5740 5740 5740
5724 5723 5721 5720 5720 5720 5720 5718 5717 5717 5716 5715 5715 5714 5712 5711 5710 5710 5709 5708 5706 5705 5704 5703 5702 5701 5700 5699 5698 5697 5697 5696 5695 5694 5694 5694 5693 5694 5694 5695 5695 5696 5697 5698 5700 5701 5701 5702 5704 5704 5706 5707 5709 5711 5712 5714 5715 5717 5720 5721 5721 5722 5723 5725 5726 5726 5727 5728 5729 5729 5727 5730 5736 5738 5739 5738 5735 5734 5732 5733 5735 5734 5734 5735 5735 5735 5736 5736
5722 5721 5720 5718 5718 5718 5718 5717 5716 5714 5714 5713 5713 5712 5711 5710 5709 5708 5708 5707 5706 5705 5703 5703 5702 5701 5700 5699 5698 5698 5697 5697 5696 5695 5694 5694 5695 5695 5695 5696 5696 5697 5698 5699 5700 5701 5702 5703 5705 5706 5707 5708 5710 5711 5712 5713 5715 5718 5719 5719 5720 5721 5722 5723 5723 5723 5724 5724 5726 5728 5725 5725 5731 5736 5737 5735 5733 5732 5729 5729 5731 5730 5729 5729 5730 5730 5731 5731
5719 5719 5718 5716 5716 5716 5716 5715 5714 5712 5712 5711 5711 5711 5710 5708 5707 5707 5706 5706 5706 5704 5703 5702 5702 5701 5700 5699 5699 5698 5697 5697 5696 5696 5695 5695 5695 5695 5696 5696 5697 5697 5698 5699 5700 5701 5702 5703 5704 5705 5707 5708 5710 5710 5711 5713 5714 5716 5717 5717 5718 5719 5719 5720 5720 5720 5720 5720 5724 5727 5724 5720 5724 5731 5735 5732 5730 5730 5727 5726 5727 5725 5725 5725 5726 5726 5727 5727
5715 5715 5715 5714 5713 5713 5713 5713 5712 5711 5710 5709 5708 5708 5708 5707 5706 5705 5705 5705 5704 5703 5703 5702 5701 5700 5700 5699 5699 5698 5697 5697 5697 5696 5696 5696 5696 5696 5696 5696 5697 5697 5698 5698 5700 5701 5701 5702 5703 5704 5706 5708 5709 5709 5710 5711 5712 5714 5715 5715 5716 5716 5716 5717 5716 5717 5716 5716 5721 5725 5722 5717 5717 5725 5731 5728 5727 5726 5724 5723 5723 5721 5722 5722 5723 5723 5723 5723
5712 5712 5712 5712 5711 5710 5710 5710 5709 5709 5708 5707 5706 5706 5706 5705 5705 5704 5704 5703 5702 5702 5701 5701 5700 5699 5699 5698 5698 5698 5697 5697 5697 5696 5696 5696 5696 5696 5696 5696 5697 5697 5697 5698 5699 5700 5700 5701 5702 5703 5705 5706 5706 5707 5708 5710 5711 5712 5712 5713 5714 5713 5713 5713 5713 5714 5712 5712 5718 5721 5719 5714 5713 5721 5725 5723 5723 5723 5720 5720 5719 5718 5719 5720 5720 5720 5719 5719
5708 5709 5709 5709 5708 5708 5707 5707 5707 5706 5705 5704 5704 5703 5703 5703 5703 5703 5702 5700 5700 5700 5700 5699 5699 5698 5698 5697 5697 5696 5696 5696 5696 5696 5696 5696 5696 5696 5696 5696 5696 5696 5697 5697 5698 5699 5699 5700 5701 5702 5702 5703 5704 5705 5706 5707 5709 5710 5710 5710 5711 5710 5710 5710 5710 5711 5709 5710 5713 5715 5715 5712 5712 5718 5721 5718 5719 5719 5717 5717 5716 5715 5716 5717 5717 5717 5716 5716
5704 5705 5705 5705 5705 5705 5704 5704 5704 5703 5702 5702 5701 5701 5701 5701 5702 5702 5700 5698 5698 5699 5698 5697 5697 5697 5696 5696 5696 5695 5695 5695 5695 5695 5695 5695 5695 5695 5695 5695 5695 5695 5696 5697 5697 5698 5698 5699 5699 5700 5700 5701 5701 5702 5703 5705 5706 5707 5707 5708 5708 5707 5708 5707 5708 5709 5708 5706 5708 5710 5711 5710 5711 5716 5717 5714 5714 5713 5712 5712 5711 5711 5712 5713 5714 5714 5713 5712
5700 5701 5701 5701 5702 5701 5701 5701 5700 5700 5699 5699 5698 5698 5698 5699 5700 5700 5698 5696 5696 5697 5696 5696 5695 5695 5695 5695 5695 5694 5694 5694 5694 5694 5694 5694 5694 5694 5694 5694 5694 5693 5694 5695 5695 5696 5697 5697 5697 5698 5699 5699 5699 5700 5701 5702 5703 5704 5704 5704 5704 5705 5704 5704 5705 5706 5704 5703 5704 5706 5706 5706 5710 5713 5713 5711 5709 5708 5707 5707 5707 5709 5708 5708 5708 5709 5709 5708
5695 5696 5696 5697 5697 5697 5697 5697 5697 5696 5696 5695 5695 5695 5695 5697 5699 5698 5696 5695 5695 5695 5695 5694 5694 5693 5693 5693 5693 5693 5693 5693 5692 5692 5692 5693 5693 5693 5693 5693 5693 5692 5693 5693 5693 5694 5694 5695 5696 5696 5697 5697 5698 5698 5699 5700 5700 5701 5701 5701 5701 5703 5701 5700 5701 5701 5701 5700 5700 5701 5702 5704 5708 5709 5707 5707 5705 5704 5703 5703 5704 5705 5705 5704 5703 5704 5704 5704
5690 5690 5692 5693 5692 5692 5693 5693 5693 5692 5691 5691 5691 5691 5693 5696 5696 5695 5694 5694 5693 5693 5693 5692 5692 5692 5691 5692 5691 5691 5692 5692 5691 5691 5691 5691 5691 5692 5692 5691 5691 5691 5691 5692 5692 5691 5692 5693 5693 5693 5694 5695 5695 5695 5696 5697 5697 5698 5698 5698 5699 5700 5698 5696 5696 5697 5697 5696 5695 5697 5699 5701 5703 5704 5703 5702 5701 5699 5699 5700 5701 5701 5700 5700 5700 5700 5700 5700
5684 5685 5687 5687 5687 5687 5688 5688 5688 5688 5687 5687 5686 5687 5692 5694 5693 5692 5692 5691 5690 5691 5691 5690 5691 5690 5690 5690 5689 5689 5689 5690 5690 5690 5690 5690 5690 5690 5691 5690 5690 5690 5690 5690 5690 5690 5690 5691 5691 5691 5691 5691 5692 5692 5692 5693 5694 5695 5695 5695 5696 5696 5694 5692 5693 5694 5693 5692 5692 5694 5697 5698 5700 5700 5700 5698 5696 5694 5695 5698 5698 5697 5696 5697 5697 5697 5696 5696
5678 5680 5681 5681 5681 5682 5683 5684 5683 5682 5683 5681 5680 5685 5690 5690 5689 5689 5689 5688 5688 5688 5688 5688 5689 5688 5688 5688 5687 5687 5687 5687 5687 5688 5688 5688 5688 5689 5689 5689 5688 5688 5688 5688 5688 5688 5688 5688 5689 5689 5689 5689 5689 5690 5690 5690 5691 5692 5692 5692 5692 5691 5691 5690 5690 5690 5690 5689 5689 5692 5695 5697 5697 5697 5697 5695 5691 5690 5692 5695 5695 5694 5694 5694 5693 5693 5692 5693
5673 5674 5675 5675 5675 5676 5677 5678 5677 5678 5677 5673 5675 5683 5687 5687 5687 5686 5685 5684 5684 5684 5684 5685 5686 5686 5686 5685 5685 5685 5684 5685 5685 5685 5686 5686 5687 5687 5687 5686 5686 5686 5685 5685 5686 5686 5686 5686 5687 5687 5687 5687 5687 5687 5688 5689 5688 5689 5689 5689 5689 5689 5689 5689 5687 5687 5689 5687 5687 5690 5693 5694 5695 5695 5694 5690 5686 5686 5690 5692 5692 5692 5691 5690 5689 5689 5688 5688
5667 5668 5669 5670 5670 5670 5672 5672 5671 5672 5668 5666 5673 5681 5683 5684 5684 5682 5680 5680 5680 5680 5682 5683 5682 5683 5684 5683 5683 5683 5681 5682 5683 5683 5683 5684 5684 5685 5684 5684 5684 5684 5683 5683 5683 5684 5683 5683 5684 5685 5685 5684 5685 5686 5686 5686 5686 5686 5686 5687 5687 5687 5686 5686 5686 5686 5686 5685 5684 5686 5690 5692 5692 5691 5689 5686 5684 5684 5687 5689 5689 5688 5688 5686 5685 5684 5684 5684
5660 5661 5663 5665 5664 5664 5666 5665 5664 5663 5661 5663 5671 5676 5678 5680 5680 5679 5677 5675 5675 5677 5678 5679 5679 5680 5681 5681 5680 5680 5679 5679 5680 5680 5680 5681 5682 5681 5681 5681 5682 5682 5681 5681 5681 5681 5680 5680 5681 5682 5682 5682 5684 5683 5682 5683 5683 5683 5684 5685 5685 5685 5683 5682 5683 5684 5683 5681 5681 5681 5686 5690 5689 5686 5685 5684 5683 5683 5684 5685 5685 5684 5684 5682 5681 5680 5679 5679
5653 5654 5657 5659 5658 5658 5659 5658 5657 5657 5657 5659 5664 5669 5673 5676 5676 5675 5674 5671 5671 5673 5674 5675 5676 5677 5678 5678 5677 5677 5677 5677 5678 5677 5677 5679 5679 5678 5678 5679 5679 5678 5678 5679 5679 5679 5678 5678 5678 5679 5680 5680 5681 5680 5679 5680 5681 5681 5682 5682 5682 5682 5681 5679 5679 5681 5680 5678 5678 5678 5682 5687 5685 5683 5683 5682 5682 5682 5681 5682 5681 5680 5679 5677 5677 5676 5675 5675
5645 5648 5651 5652 5652 5652 5652 5650 5651 5652 5650 5651 5658 5664 5668 5670 5670 5670 5669 5667 5667 5668 5669 5671 5672 5673 5674 5674 5674 5673 5673 5674 5675 5675 5675 5676 5675 5674 5675 5676 5675 5675 5675 5676 5676 5675 5675 5675 5675 5677 5678 5678 5678 5677 5676 5677 5678 5679 5679 5680 5680 5678 5678 5676 5675 5676 5676 5675 5676 5676 5679 5683 5684 5681 5680 5678 5679 5680 5679 5679 5678 5676 5674 5673 5672 5672 5670 5670
5639 5641 5643 5644 5645 5645 5644 5643 5644 5644 5644 5647 5654 5659 5661 5663 5665 5665 5665 5665 5664 5664 5664 5666 5667 5668 5669 5670 5670 5670 5670 5670 5672 5673 5672 5673 5673 5672 5672 5672 5672 5672 5671 5672 5673 5672 5670 5671 5672 5673 5673 5674 5675 5675 5675 5675 5675 5676 5676 5677 5676 5674 5674 5672 5670 5671 5671 5671 5675 5674 5674 5681 5684 5680 5677 5675 5675 5676 5676 5675 5675 5672 5670 5669 5668 5667 5666 5666
5631 5632 5634 5635 5636 5637 5636 5637 5637 5638 5641 5643 5647 5650 5653 5656 5658 5660 5661 5662 5660 5659 5659 5660 5662 5663 5664 5665 5665 5666 5667 5667 5669 5670 5669 5670 5671 5670 5668 5668 5668 5667 5667 5668 5668 5667 5665 5666 5668 5668 5669 5671 5672 5672 5672 5672 5671 5671 5673 5672 5671 5671 5670 5668 5667 5667 5664 5667 5674 5669 5666 5677 5683 5678 5675 5674 5671 5671 5673 5672 5671 5668 5667 5666 5665 5663 5662 5662
5621 5623 5626 5627 5628 5628 5629 5631 5632 5633 5635 5637 5638 5641 5644 5648 5652 5654 5656 5657 5655 5654 5654 5655 5657 5658 5658 5659 5661 5663 5664 5664 5665 5665 5665 5667 5668 5667 5665 5664 5664 5663 5663 5662 5662 5662 5661 5661 5663 5664 5665 5666 5669 5669 5668 5669 5668 5667 5668 5668 5667 5666 5664 5663 5664 5661 5659 5666 5669 5663 5662 5672 5678 5675 5672 5672 5669 5669 5670 5670 5667 5665 5663 5662 5660 5660 5660 5660
5612 5614 5618 5620 5620 5621 5624 5626 5626 5626 5629 5630 5632 5634 5637 5641 5647 5649 5650 5650 5650 5650 5650 5650 5652 5652 5653 5655 5657 5659 5660 5660 5659 5659 5662 5664 5664 5663 5662 5661 5660 5659 5658 5656 5656 5656 5655 5656 5658 5660 5660 5662 5665 5664 5663 5664 5664 5663 5663 5663 5662 5661 5660 5659 5657 5656 5660 5662 5660 5659 5662 5666 5671 5672 5670 5669 5668 5667 5667 5666 5663 5661 5659 5658 5656 5656 5657 5657
5604 5607 5611 5613 5612 5614 5618 5620 5620 5621 5623 5624 5626 5629 5631 5636 5640 5641 5642 5642 5644 5645 5645 5644 5645 5647 5650 5653 5653 5653 5654 5654 5652 5654 5659 5660 5660 5660 5659 5657 5656 5654 5653 5652 5651 5650 5649 5650 5654 5655 5655 5658 5660 5659 5658 5658 5659 5659 5659 5658 5658 5657 5655 5653 5651 5656 5660 5654 5651 5659 5662 5658 5662 5668 5668 5667 5666 5664 5662 5661 5659 5657 5655 5654 5653 5653 5653 5653
5597 5600 5604 5604 5604 5606 5611 5613 5613 5615 5617 5617 5620 5622 5623 5626 5628 5630 5633 5636 5638 5639 5638 5637 5639 5643 5648 5650 5648 5646 5647 5647 5646 5650 5655 5656 5655 5655 5654 5652 5651 5649 5648 5647 5645 5645 5644 5645 5649 5651 5649 5652 5655 5655 5653 5652 5652 5653 5652 5652 5653 5652 5650 5649 5650 5654 5655 5647 5646 5656 5656 5651 5656 5662 5664 5665 5664 5659 5657 5656 5654 5653 5652 5650 5648 5647 5648 5648
5588 5592 5595 5594 5595 5599 5603 5605 5605 5606 5609 5610 5611 5613 5614 5616 5619 5622 5626 5629 5630 5631 5631 5631 5635 5640 5644 5644 5641 5639 5640 5641 5643 5646 5649 5649 5648 5647 5647 5648 5646 5645 5644 5642 5642 5641 5639 5639 5644 5646 5643 5645 5650 5650 5648 5647 5645 5645 5645 5644 5644 5645 5646 5648 5648 5649 5649 5643 5644 5649 5647 5646 5650 5654 5658 5660 5657 5654 5653 5652 5651 5650 5648 5646 5643 5642 5643 5643
5580 5584 5586 5584 5587 5592 5593 5595 5595 5596 5600 5602 5602 5606 5608 5608 5611 5615 5617 5620 5623 5626 5627 5628 5632 5636 5638 5636 5632 5631 5634 5638 5640 5642 5643 5640 5638 5639 5640 5641 5640 5639 5639 5639 5638 5638 5635 5635 5639 5641 5637 5639 5644 5645 5643 5641 5639 5638 5637 5635 5635 5639 5644 5645 5644 5645 5643 5640 5641 5642 5638 5640 5647 5650 5649 5649 5650 5650 5649 5647 5645 5644 5643 5642 5640 5639 5639 5638
5571 5575 5575 5572 5577 5582 5582 5583 5586 5586 5590 5593 5596 5600 5601 5600 5605 5608 5609 5614 5618 5619 5621 5623 5625 5627 5629 5626 5622 5624 5631 5635 5636 5636 5634 5630 5630 5631 5632 5632 5633 5634 5634 5634 5634 5633 5632 5630 5634 5636 5632 5631 5639 5641 5636 5635 5634 5628 5624 5626 5632 5638 5641 5639 5639 5640 5638 5637 5638 5636 5632 5636 5643 5644 5641 5641 5644 5644 5643 5641 5639 5638 5638 5637 5635 5635 5635 5633
5561 5564 5566 5563 5565 5570 5571 5574 5576 5576 5581 5589 5592 5592 5593 5595 5598 5598 5599 5604 5608 5609 5612 5616 5617 5618 5618 5618 5617 5622 5627 5628 5626 5625 5624 5622 5622 5623 5623 5624 5625 5627 5628 5629 5628 5628 5628 5626 5628 5630 5625 5624 5632 5635 5632 5631 5626 5615 5615 5625 5633 5636 5635 5633 5632 5634 5636 5635 5632 5630 5630 5634 5637 5637 5637 5638 5639 5637 5634 5634 5633 5633 5634 5632 5630 5630 5630 5630